Location: Poinsettia Observatory
(32.9673°N, 117.0346°W)
Time: 15:47:49
(UTC-08:00)

Daily predictions for brighter satellites

Satellite Brightness Start Highest point End
(mag) Time Altitude Azimuth Time Altitude Azimuth Time Altitude Azimuth
SMAP 3.3 17:00:23 10° SSE 17:04:51 48° ENE 17:09:19 10° N
PAYLOAD A 3.8 17:00:13 10° SSE 17:04:56 80° ENE 17:09:49 10° N
YAOGAN 1 2.9 17:00:58 10° SE 17:05:03 42° ENE 17:09:08 10° N
SPOT 3 Rocket 3.7 17:00:05 10° SSE 17:05:07 53° ENE 17:10:10 10° N
Cosmos 2278 Rocket 2.8 17:06:28 10° S 17:11:36 37° ESE 17:16:45 10° NE
COSMOS 2406 3.2 17:12:14 10° NNW 17:17:57 68° ENE 17:23:39 10° SSE
FALCON 9 R/B 4.5 16:41:17 10° WSW 17:18:26 77° SSE 17:26:28 11° ENE
OTV 4 0.8 17:15:37 10° WNW 17:18:32 46° NNE 17:21:18 11° E
Cosmos 1484 Rocket 3.8 17:17:23 10° SE 17:20:25 23° ENE 17:23:26 10° NNE
USA 32 4.0 17:16:11 10° S 17:21:23 76° E 17:26:37 10° N
SJ-7 4.5 17:17:22 10° SSE 17:21:31 65° ENE 17:25:43 10° N
IDEFIX/ARIANE 42P 2.5 17:16:22 10° SSE 17:21:33 74° ENE 17:26:44 10° N
SL-8 Rocket 4.0 17:15:37 10° N 17:21:44 66° E 17:27:49 10° SSE
EP 2 4.4 17:20:44 10° SSW 17:23:24 55° ESE 17:25:44 12° NE
Meteor 1-5 Rocket 4.2 17:23:03 10° N 17:28:30 90° NE 17:34:07 10° S
BREEZE M DEB (TANK) 3.6 17:15:12 10° SW 17:29:11 79° SE 17:32:37 14° NE
CZ-4 R/B 4.4 17:25:41 10° SSE 17:29:45 62° ENE 17:33:52 10° N
SKYMED 2 3.9 17:25:53 10° NNE 17:30:02 44° E 17:34:11 10° S
Cosmos 1455 Rocket 3.3 17:27:35 10° N 17:31:49 44° E 17:36:02 10° SSE
Cosmos 2366 rocket 4.1 17:25:39 10° N 17:31:54 57° E 17:38:03 10° SSE
Cosmos 2218 Rocket 4.0 17:27:34 10° N 17:33:50 69° E 17:40:00 10° SSE
Meteor 2-19 Rocket 4.4 17:29:04 10° N 17:35:07 75° E 17:41:09 10° S
Cosmos 1959 Rocket 4.4 17:31:32 10° N 17:37:43 74° E 17:43:57 10° S
Delta 2 Rocket 4.1 17:36:23 10° SW 17:39:59 38° SSE 17:42:45 18° E
Cosmos 2082 Rocket 3.9 17:38:08 10° NNE 17:39:41 13° NE 17:39:41 13° NE
SL-8 R/B 3.9 17:38:39 10° WSW 17:43:23 68° NW 17:47:02 17° NE
Okean 1 3.3 17:40:55 10° S 17:44:54 65° E 17:48:55 10° NNE
Cosmos 1500 3.9 17:45:26 10° NNE 17:48:53 31° E 17:52:19 10° SE
Hubble Space Telescope 2.9 17:45:40 10° WSW 17:48:58 23° SSW 17:52:15 10° SE
Cosmos 494 Rocket 4.1 17:43:59 10° N 17:49:05 50° ENE 17:54:09 10° SE
NOSS 3-3 (A) 3.9 17:44:52 10° SSW 17:50:58 87° ESE 17:57:10 12° NNE
NOSS 3-3 (C) 3.9 17:44:58 10° SSW 17:51:05 87° ESE 17:57:14 12° NNE
ISS -0.6 17:50:59 10° NW 17:52:24 12° NNW 17:53:51 10° N
Meteor 1-28 Rocket 3.6 17:50:05 18° NNE 17:52:38 43° E 17:56:14 10° S
Cosmos 2251 Rocket 3.4 17:57:48 10° NNW 18:03:10 83° ENE 18:08:28 10° SSE
ATLAS 2AS CENTAUR R/B 2.9 17:56:25 10° NNW 18:04:25 69° ENE 18:11:47 10° SE
Cosmos 1812 4.0 18:01:06 10° SSW 18:04:45 41° W 18:08:26 10° N
SL-27 R/B 3.0 18:01:23 10° NNW 18:05:01 63° WSW 18:08:35 10° S
Tiangong 1 0.8 18:02:36 10° SW 18:05:36 68° SSE 18:05:52 62° ESE
Cosmos 1346 Rocket 2.6 18:01:45 10° S 18:05:40 76° E 18:08:21 19° NNE
CZ-4 R/B 4.4 18:07:25 10° SW 18:10:23 19° W 18:13:22 10° NW
TIMED 4.5 18:11:19 10° S 18:15:36 59° ESE 18:16:38 45° NE
COSMO-SKYMED 1 3.6 18:13:54 10° N 18:18:03 45° WNW 18:22:10 10° SSW
CZ-3B DEB 3.7 18:14:37 10° W 18:18:17 29° NNW 18:24:12 14° NNE
Nadezhda 3 Rocket 3.9 18:17:11 10° S 18:23:20 89° W 18:29:37 10° N
GEOS 3 Rocket 3.4 18:20:24 10° SE 18:25:26 76° NE 18:30:33 10° NNW
SL-24 R/B - RUBIN 2 4.4 18:19:45 10° SSW 18:25:52 90° W 18:29:43 27° NNE
Meteor 2-21 4.4 18:21:45 10° N 18:27:58 88° E 18:34:05 10° S
Cosmos 1975 3.7 18:27:05 10° NNW 18:31:01 49° W 18:34:54 10° SSW
Cosmos 2297 3.7 18:33:16 10° SSW 18:38:55 78° WNW 18:41:27 34° NNE
NOSS 2-1 (D) 4.2 18:45:28 10° SW 18:48:11 45° SW 18:48:11 45° SW
NOSS 2-1 (C) 4.2 18:46:08 10° SW 18:48:50 44° SW 18:48:50 44° SW
Meteor 1-19 Rocket 4.5 18:45:12 10° SSW 18:50:54 70° W 18:54:39 23° N
OAO 1 4.5 18:45:35 10° W 18:51:00 71° N 18:51:00 71° N
Meteor 2-14 Rocket 4.4 18:45:40 10° N 18:51:50 81° W 18:57:56 10° S
Cosmos 1025 Rocket 4.1 18:49:43 10° S 18:52:20 36° SSW 18:52:20 36° SSW
OTV 4 3.5 18:52:11 10° W 18:52:57 16° W 18:52:57 16° W
Cosmos 2278 Rocket 4.1 18:51:08 10° WSW 18:55:43 25° WNW 19:00:19 10° N
Cosmos 921 Rocket 4.2 18:58:40 10° SW 19:02:15 40° W 19:02:15 40° W
Cosmos 1371 Rocket 4.5 19:04:22 10° SSW 19:08:45 59° SW 19:08:45 59° SW
Cosmos 2082 Rocket 4.0 19:19:42 10° NNW 19:21:38 22° NNW 19:21:38 22° NNW
Timation 2 Rocket 4.4 19:23:29 10° NNW 19:30:03 66° W 19:30:03 66° W
ATLAS 3B CENTAUR R/B 3.3 19:26:04 10° W 19:37:44 56° SW 19:37:44 56° SW
